User: anonymous   Login
Location: Oulou
(10.7667°N, 12.5167°W)
Time: 19:19:56
(UTC+00:00)
Language:

Cosmos 2184 Rocket - Orbit

View from above orbital plane
View from above orbital plane
View from above satellite
View from above satellite

Ground track
Ground track

The orbit data is extracted from the following two-line orbital elements,

1 21938U 92020B   19314.90814743 +.00000052 +00000-0 +38732-4 0  9994
2 21938 082.9315 069.5683 0027919 265.7262 234.1552 13.75280723383495
Epoch (UTC): 10 November 2019 21:47:43
Eccentricity: 0.0027919
inclination: 82.9315°
perigee height: 960 km
apogee height: 1001 km
right ascension of ascending node: 69.5683°
argument of perigee: 265.7262°
revolutions per day: 13.75280723
mean anomaly at epoch: 234.1552°
orbit number at epoch: 38349

The dashed part of the orbit path shows where the satellite is in the earth's shadow,  

DLR